Home   Weather   Arendal   Past weeks

Flag for Norway Past Weather in Arendal, Norway — Yesterday and Last 2 Weeks

Now
45 °F

Cool.


Feels Like: 45 °F
Forecast: 43 / 47 °F
Wind: 1 mph from North

Location: Torungen Fyr

Current Time: Dec 10, 2016 at 12:13:54 am

Latest Report: Dec 9, 2016 at 11:00 pm


Visibility: N/A

Pressure: 29.83 "Hg

Humidity: 96%

Dew Point: 44 °F

Location of ArendalLocation

Past Weather in Arendal — Graph

°F

Arendal Temperature Yesterday

Maximum temperature yesterday: 49 °F (at 1:00 pm)
Minimum temperature yesterday: 46 °F (at 10:00 pm)
Average temperature yesterday: 47 °F

High & Low Weather Summary for the Past Weeks

 TemperatureHumidityPressure
High54 °F (Dec 8, 1:00 pm)98% (Dec 7, 1:00 pm)30.51 "Hg (Dec 7, 1:00 pm)
Low32 °F (Nov 29, 6:00 am)41% (Nov 27, 3:00 pm)29.62 "Hg (Dec 1, 3:00 pm)
Average42 °F75%30.06 "Hg
* Reported Nov 24 10:00 pm — Dec 9 10:00 pm, Arendal, Weather by CustomWeather, © 2016

Note: Actual official high and low records may vary slightly from our data, if they occured in-between our weather recording intervals... More about our weather records

Advertising

Arendal Weather History for the Previous 24 Hours

Scroll right to see more
 ConditionsComfort  
Time TempWeatherWind HumidityBarometerVisibility
10:00 pm
Fri, Dec 9
46 °FCool.3 mph96%29.85 "HgN/A
9:00 pm46 °FCool.5 mph96%29.88 "HgN/A
8:00 pm46 °FCool.6 mph96%29.89 "HgN/A
7:00 pm47 °FCool.12 mph93%29.91 "HgN/A
6:00 pm47 °FCool.12 mph95%29.92 "HgN/A
5:00 pm47 °FCool.10 mph94%29.94 "HgN/A
4:00 pm47 °FCool.8 mph94%29.95 "HgN/A
3:00 pm48 °FCool.10 mph91%29.95 "HgN/A
2:00 pm49 °FCool.12 mph90%29.94 "HgN/A
1:00 pm49 °FCool.10 mph88%29.95 "HgN/A
12:00 pm49 °FCool.10 mph87%29.93 "HgN/A
11:00 am48 °FCool.10 mph85%29.93 "HgN/A
10:00 am47 °FCool.12 mph89%29.88 "HgN/A
9:00 am47 °FCool.10 mph86%29.88 "HgN/A
8:00 am46 °FCool.7 mph85%29.88 "HgN/A
7:00 am46 °FCool.8 mph89%29.88 "HgN/A
6:00 am46 °FCool.10 mph90%29.87 "HgN/A
5:00 am46 °FCool.9 mph89%29.88 "HgN/A
4:00 am47 °FCool.12 mph90%29.89 "HgN/A
3:00 am47 °FCool.12 mph87%29.89 "HgN/A
2:00 am47 °FCool.12 mph87%29.90 "HgN/A
1:00 am47 °FCool.9 mph87%29.91 "HgN/A
Weather by CustomWeather, © 2016

See weather overviewHow to use our weather pages